Weather History for NW Arkansas Airport, AR

Change the Weather History Date:

Monday, July 22, 2013

  Actual Average Record
Temperature  
Mean Temperature 77 °F -  
Max Temperature 89 °F - - ()
Min Temperature 66 °F - - ()
Cooling Degree Days 12    
Growing Degree Days 27 (Base 50)    
Moisture  
Dew Point 67 °F    
Average Humidity 75    
Maximum Humidity 94    
Minimum Humidity 45    
Precipitation  
Precipitation 0.38 in - - ()
Sea Level Pressure  
Sea Level Pressure 29.92 in    
Wind  
Wind Speed 8 mph (SSW)    
Max Wind Speed 15 mph    
Max Gust Speed 24 mph    
Visibility 9 miles    
Events Rain , Thunderstorm    
T = Trace of Precipitation, MM = Missing Value Source: NWS Daily Summary

Daily Weather History Graph

Daily Weather History Graph

Search for Another Location

Airport:

Trip Planner

Search our weather history database for the weather conditions in past years. The results will help you decide how hot, cold, wet, or windy it might be!

Date:

Astronomy

Jul. 22, 2013 Rise Set
Actual Time 6:16 AM CDT 8:30 PM CDT
Civil Twilight 5:47 AM CDT 8:59 PM CDT
Nautical Twilight 5:11 AM CDT 9:35 PM CDT
Astronomical Twilight 4:32 AM CDT 10:13 PM CDT
Moon 8:20 PM CDT (7/22) 6:11 AM CDT (7/22)
Length of Visible Light 15h 12m
Length of Day
14h 14m
Full, 100% of the Moon is Illuminated
Jul 22
Full
Jul 22
Full
Jul 29
Last Quarter
Aug 6
New
Aug 14
First Quarter

Hourly Weather History & Observations

Time (CDT) Temp. Heat Index Dew Point Humidity Pressure Visibility Wind Dir Wind Speed Gust Speed Precip Events Conditions
12:45 AM 75.2 °F - 69.8 °F 83% 29.88 in 10.0 mi SSW 6.9 mph - N/A Thunderstorm Partly Cloudy
12:53 AM 75.9 °F - 69.1 °F 79% 29.84 in 10.0 mi Calm Calm - N/A Thunderstorm Partly Cloudy
1:00 AM 75.2 °F - 69.8 °F 83% 29.90 in 10.0 mi North 12.7 mph 17.3 mph N/A   Scattered Clouds
1:08 AM 75.2 °F - 69.8 °F 83% 29.91 in 10.0 mi Variable 6.9 mph - N/A Thunderstorm Mostly Cloudy
1:34 AM 75.2 °F - 71.6 °F 89% 29.91 in 10.0 mi ENE 6.9 mph - N/A Thunderstorm Mostly Cloudy
1:53 AM 75.9 °F - 71.1 °F 85% 29.86 in 10.0 mi ESE 6.9 mph - N/A Thunderstorm Mostly Cloudy
2:00 AM 77.0 °F - 69.8 °F 78% 29.91 in 10.0 mi SE 5.8 mph - N/A   Mostly Cloudy
2:53 AM 75.0 °F - 70.0 °F 84% 29.86 in 10.0 mi South 8.1 mph - N/A   Partly Cloudy
3:53 AM 73.9 °F - 66.9 °F 79% 29.83 in 10.0 mi South 8.1 mph - N/A   Clear
4:53 AM 73.0 °F - 69.1 °F 87% 29.83 in 10.0 mi SSW 4.6 mph - N/A   Clear
5:53 AM 73.0 °F - 68.0 °F 84% 29.89 in 10.0 mi NE 15.0 mph 24.2 mph N/A   Mostly Cloudy
6:17 AM 71.6 °F - 64.4 °F 78% 29.97 in 10.0 mi ENE 10.4 mph 23.0 mph N/A   Overcast
6:44 AM 69.8 °F - 62.6 °F 78% 29.97 in 10.0 mi East 11.5 mph - N/A   Overcast
7:53 AM 69.1 °F - 62.1 °F 78% 29.94 in 10.0 mi East 10.4 mph - N/A   Partly Cloudy
8:53 AM 71.1 °F - 62.1 °F 73% 29.94 in 10.0 mi East 12.7 mph - N/A   Scattered Clouds
9:53 AM 73.0 °F - 63.0 °F 71% 29.94 in 10.0 mi ESE 5.8 mph - N/A   Clear
10:14 AM 71.6 °F - 62.6 °F 73% 30.00 in 10.0 mi NE 10.4 mph - N/A Thunderstorm Thunderstorm
10:53 AM 72.0 °F - 62.1 °F 71% 29.99 in 10.0 mi WNW 13.8 mph 24.2 mph N/A Thunderstorm Thunderstorm
11:00 AM 71.6 °F - 62.6 °F 73% 30.02 in 10.0 mi NW 11.5 mph 20.7 mph N/A Thunderstorm Thunderstorm
11:17 AM 69.8 °F - 66.2 °F 88% 30.03 in 1.8 mi NW 13.8 mph 20.7 mph 0.12 in Rain , Thunderstorm Heavy Thunderstorms and Rain
11:24 AM 68.0 °F - 66.2 °F 94% 30.03 in 3.0 mi NW 11.5 mph 20.7 mph 0.14 in Rain , Thunderstorm Thunderstorms and Rain
11:43 AM 66.2 °F - 64.4 °F 94% 30.03 in 1.8 mi NW 12.7 mph 21.9 mph 0.26 in Rain , Thunderstorm Heavy Thunderstorms and Rain
11:53 AM 68.0 °F - 64.9 °F 90% 29.99 in 1.5 mi WNW 9.2 mph - 0.35 in Rain , Thunderstorm Thunderstorms and Rain
11:56 AM 68.0 °F - 64.4 °F 88% 30.02 in 4.0 mi WNW 6.9 mph - 0.00 in Rain , Thunderstorm Light Thunderstorms and Rain
12:53 PM 71.1 °F - 66.0 °F 84% 29.91 in 10.0 mi SW 10.4 mph - 0.03 in Thunderstorm Thunderstorm
1:53 PM 82.9 °F 85.0 °F 66.0 °F 56% 29.90 in 10.0 mi South 9.2 mph - N/A Thunderstorm Thunderstorm
2:53 PM 88.0 °F 89.3 °F 64.0 °F 45% 29.89 in 10.0 mi SW 6.9 mph - N/A Thunderstorm Thunderstorm
3:05 PM 87.8 °F 89.4 °F 64.4 °F 46% 29.95 in 10.0 mi SW 6.9 mph - N/A   Clear
3:40 PM 82.4 °F 87.2 °F 71.6 °F 70% 29.95 in 10.0 mi North 11.5 mph 20.7 mph N/A   Scattered Clouds
3:53 PM 81.0 °F 84.4 °F 70.0 °F 69% 29.90 in 10.0 mi North 11.5 mph - N/A   Partly Cloudy
4:53 PM 84.9 °F 88.2 °F 68.0 °F 57% 29.85 in 10.0 mi Calm Calm - N/A   Clear
5:53 PM 87.1 °F 92.0 °F 70.0 °F 57% 29.85 in 10.0 mi SW 9.2 mph - N/A   Clear
6:53 PM 84.9 °F 88.8 °F 69.1 °F 59% 29.85 in 10.0 mi SSW 6.9 mph - N/A   Clear
7:53 PM 81.0 °F 84.9 °F 71.1 °F 72% 29.85 in 10.0 mi South 5.8 mph - N/A   Clear
8:53 PM 79.0 °F - 68.0 °F 69% 29.85 in 10.0 mi South 5.8 mph - N/A   Clear
10:53 PM 75.9 °F - 66.0 °F 71% 29.86 in 10.0 mi South 4.6 mph - N/A   Clear